Location: Bessat
(45.8735°N, 1.9924°E)
Time: 09:16:21
(UTC+00:00)

Cosmos 1933 Rocket - Pass Details

Date: 11 May 2021
Orbit: 606 x 630 km, 82.5° (Epoch: 15 June)

Event Time Altitude Azimuth Distance (km) Brightness Sun altitude
Rises 20:59:54 0° 353° (N) 2,877 7.9 -15.5°
Reaches altitude 10° 21:02:09 10° 356° (N) 1,967 6.9 -15.8°
Maximum altitude 21:06:29 66° 79° (E) 666 3.5 -16.3°
Enters shadow 21:08:27 31° 153° (SSE) 1,073 4.2 -16.5°
